BEIDOU 20

Last updated on Jan. 29, 2020, 4:37 a.m. UTC

1 40938U 15053A   20028.82029303 -.00000107  00000-0  00000-0 0  9996
2 40938  52.8294 285.8313 0047563 183.2703  48.3716  1.00259777 15985
UTC
Height (km)
Latitude
Longitude
Inclination
Orbital Period
UTC large
Height (km)
Speed (km/s)
/
Latitude / Longitude
Inclination (degrees)
Orbital Period (minutes)
Azimuth
Elevation
Range (km)
Doppler Factor
iOS Compass Heading
iOS Angle

Next 30 passes for location: Hong Kong

Rise time Rise Azimuth (degrees) Set time Set Azimuth (degrees) Duration Max altitude (degrees)

No matching passes for this satellites